Theta_e
314 318 319 319 319 318 315 314 314 315 316 316 316 318 319 318 318 315 314 316 313 313 319 319 317 318 318 318 312 307 313 313 307 307 306 304 303 302 302 301 301 300 299 298 298 298 298 298 298 299 299 301 302 304 304 306 307 308 310 312 312 313 314 316 317 318 319 319 319 319 318 317 317 318 319 319 318 318 318 318 318 318 318 319 319 320
312 317 320 321 320 317 314 313 312 312 313 313 314 316 317 317 316 314 314 315 313 314 320 320 317 320 319 316 310 307 313 312 306 307 305 304 303 302 302 301 300 300 299 298 297 297 297 297 298 298 298 299 300 300 301 302 303 305 307 307 308 310 312 313 314 315 315 316 316 315 314 313 313 313 313 313 313 314 315 315 315 315 315 315 316 316
315 317 319 319 317 314 313 313 312 313 313 313 314 314 316 317 317 319 319 317 315 315 322 322 317 320 318 313 308 307 308 306 304 305 304 303 303 301 301 300 300 299 299 297 296 296 296 296 297 297 297 297 297 298 299 300 301 303 303 304 305 306 308 309 311 312 312 312 313 312 311 310 310 308 308 308 308 309 310 310 310 310 311 311 311 312
319 321 318 314 312 312 314 314 313 313 313 315 316 315 318 317 317 323 323 320 317 314 319 320 317 320 318 311 308 306 305 304 303 303 303 302 302 301 300 299 299 299 298 297 296 295 295 295 295 296 296 296 296 297 298 298 299 300 301 302 303 304 304 305 307 308 308 309 310 309 309 309 308 306 306 307 306 306 307 308 308 308 308 308 307 307
320 321 316 312 313 314 315 315 315 315 316 319 319 316 318 318 317 321 320 320 320 318 318 316 319 327 323 315 311 307 305 305 303 302 302 301 301 300 299 299 298 297 297 296 295 294 294 294 294 294 295 295 295 296 296 296 297 298 299 300 301 302 303 304 304 305 306 307 307 307 307 307 306 305 305 305 304 304 305 305 306 307 307 306 305 305
318 316 314 315 315 315 315 316 317 317 318 322 323 319 317 319 318 319 319 318 322 325 320 315 323 336 333 322 314 309 307 306 304 303 302 301 301 300 299 299 298 297 296 295 294 294 293 293 293 294 294 295 295 295 295 295 296 297 298 299 300 300 301 302 303 303 304 304 304 304 303 302 301 300 300 300 300 301 302 302 303 305 305 305 304 304
317 315 314 317 318 317 317 317 318 318 318 322 324 321 318 317 316 318 319 319 324 327 317 312 319 330 334 328 316 310 309 306 304 303 302 301 300 299 299 298 297 297 296 295 294 293 292 293 293 293 293 294 294 294 295 295 296 296 297 298 299 299 299 300 300 301 302 302 301 301 300 298 298 297 297 297 298 299 300 301 302 302 303 303 303 303
319 317 316 316 317 319 318 318 319 319 322 325 323 322 323 319 319 321 320 320 324 322 320 319 317 319 326 325 315 311 312 308 305 304 302 301 300 299 299 298 297 297 296 296 295 293 292 292 292 292 293 293 293 294 294 295 295 296 297 297 298 298 298 298 299 299 300 300 299 299 298 298 297 297 297 297 298 299 299 300 300 300 300 301 301 301
317 316 319 318 318 319 319 320 321 318 322 326 320 319 323 322 323 325 322 322 319 316 323 327 317 316 324 323 313 310 314 313 307 304 302 301 300 299 298 298 297 297 296 295 295 293 292 292 292 292 292 293 293 293 293 294 295 295 296 297 298 298 298 298 298 298 299 298 298 298 298 297 297 297 297 297 298 298 298 298 298 298 299 299 299 299
317 314 318 321 320 321 321 321 321 319 319 319 315 318 322 321 323 325 324 324 319 316 323 325 318 318 325 326 317 311 315 317 310 304 302 301 300 299 299 298 297 297 297 295 293 292 292 292 292 292 292 292 293 293 293 293 294 294 295 296 296 296 296 296 297 297 297 297 297 297 297 296 296 296 296 296 296 296 296 296 296 296 296 296 297 297
316 311 313 318 320 322 323 317 314 317 316 313 316 322 324 323 323 324 324 322 318 322 325 322 318 318 322 328 323 315 314 314 309 304 303 301 300 300 299 298 297 297 297 296 293 292 292 292 292 292 292 292 292 293 293 293 293 293 293 294 294 293 293 294 294 295 295 295 295 295 294 294 294 294 294 294 294 293 294 293 293 293 293 294 294 294
317 314 315 317 317 319 321 316 313 314 314 315 321 325 324 324 323 322 324 321 321 327 325 318 316 314 320 325 319 313 309 306 307 305 303 302 301 300 299 298 297 297 297 296 295 293 292 291 291 292 292 292 292 293 293 293 292 292 292 292 292 291 292 292 293 293 293 293 293 293 293 292 292 292 292 292 291 291 291 291 291 291 291 292 292 292
320 319 317 315 314 316 322 321 316 315 316 318 323 324 324 325 323 323 325 322 323 324 317 315 315 314 321 320 313 310 307 304 306 304 301 301 301 300 300 298 297 297 296 296 296 294 291 291 291 291 291 291 292 292 292 292 292 292 291 291 291 290 290 290 291 291 291 291 290 290 290 289 289 289 289 289 288 288 288 288 288 288 288 288 288 289
324 323 317 314 314 315 320 320 319 321 319 316 320 324 324 325 325 327 325 319 320 321 314 313 315 316 321 316 308 306 304 302 303 302 300 300 300 300 300 299 298 297 296 295 295 294 291 291 291 291 291 291 291 291 291 292 292 291 291 291 290 289 289 289 289 289 289 288 288 288 287 287 287 287 286 286 286 286 286 286 286 286 285 286 286 286
326 327 320 317 317 315 315 316 324 329 320 315 319 321 322 326 328 328 326 321 322 322 315 311 315 323 324 313 303 302 301 300 302 301 300 300 299 300 299 299 298 297 296 295 295 293 291 291 292 291 291 290 290 290 290 291 291 291 290 290 289 289 288 288 288 288 288 287 287 287 287 287 287 286 286 286 286 286 286 285 285 285 285 285 285 286
321 326 323 316 312 313 314 315 321 325 320 315 315 317 320 324 323 321 322 320 319 322 318 315 319 321 315 306 301 302 301 300 301 301 301 301 300 300 299 299 299 298 296 295 295 293 291 291 292 291 291 290 290 290 290 290 290 290 290 289 289 289 288 288 288 288 288 287 288 287 287 287 287 287 287 286 286 286 286 286 286 286 286 286 286 286
319 325 322 313 311 312 311 313 316 320 321 316 314 319 320 317 319 321 320 315 315 320 320 318 320 315 309 307 303 302 302 300 301 301 300 301 300 300 300 300 300 299 297 296 295 293 291 292 292 291 291 290 289 290 289 289 290 290 289 289 289 289 288 288 288 288 288 288 288 287 287 287 287 287 287 287 287 287 287 287 287 287 287 287 287 287
320 325 321 313 314 312 307 311 315 314 318 319 319 321 316 313 319 323 322 320 319 321 319 318 320 317 316 315 305 301 303 302 301 301 300 300 300 301 301 300 300 299 298 297 295 292 291 292 292 292 291 290 289 289 289 289 289 289 289 289 288 288 288 288 288 288 288 288 288 288 288 287 287 287 287 287 287 287 288 288 288 288 288 288 288 288
317 322 322 313 314 315 310 314 317 311 311 317 319 316 314 318 323 320 320 323 322 321 322 321 319 317 318 317 310 306 304 302 301 301 301 301 301 301 301 301 300 299 298 297 295 293 291 292 292 292 292 291 289 289 289 289 289 289 288 288 288 288 287 287 287 287 288 288 288 288 288 288 287 287 287 287 287 287 288 288 288 288 288 287 287 287
316 319 322 314 311 314 314 316 321 317 311 311 313 312 314 319 323 320 318 321 323 321 322 322 318 319 320 319 317 312 304 301 302 301 300 301 301 301 301 301 300 300 297 296 297 294 291 291 292 291 292 291 290 289 289 289 289 288 288 288 288 287 287 287 287 287 288 288 288 287 287 287 287 287 287 287 287 287 287 287 287 287 287 287 287 287
316 316 321 319 313 313 317 318 320 321 317 314 315 316 316 315 317 319 317 318 322 321 321 320 318 323 323 315 315 312 303 300 301 301 301 301 301 301 301 301 300 299 297 297 297 294 291 291 292 291 291 291 290 290 289 289 288 288 288 288 287 287 287 287 287 287 287 287 287 287 287 287 287 287 287 287 287 287 287 287 287 287 286 286 286 286
318 317 323 324 319 319 323 318 313 316 319 319 319 319 318 317 317 319 317 317 319 319 322 320 318 322 319 309 309 309 303 301 301 301 302 302 302 302 301 302 301 299 298 297 296 293 291 291 291 291 291 290 290 290 289 289 289 288 288 288 287 288 288 288 288 288 288 288 288 288 288 287 287 287 287 287 287 287 287 287 286 286 286 286 286 286
318 320 324 324 322 321 319 311 307 312 316 317 317 316 317 318 318 319 319 319 318 318 320 319 318 318 312 307 308 306 302 301 301 301 303 302 303 303 303 302 301 299 299 298 295 292 291 292 291 291 291 291 291 290 290 289 289 289 288 288 288 288 288 288 288 288 288 288 288 288 288 288 287 287 287 287 287 286 286 286 286 286 286 286 286 286
317 319 321 322 322 318 314 312 310 311 313 314 315 315 315 317 317 316 316 318 319 318 318 317 318 317 311 308 307 304 302 302 301 302 304 304 305 304 303 303 302 300 299 297 294 292 291 292 291 291 291 291 291 290 290 289 289 289 288 288 288 288 288 288 288 288 288 288 288 287 287 287 287 286 286 286 286 286 286 286 285 285 285 285 285 285
318 319 321 322 321 318 316 316 315 313 314 315 317 316 314 315 315 313 313 315 316 317 317 316 317 316 312 309 307 304 303 303 302 302 304 307 309 307 304 303 301 299 298 296 295 293 291 291 291 291 292 292 291 290 290 289 289 289 289 289 289 289 288 288 288 288 288 287 287 287 286 286 286 286 286 286 286 286 286 286 285 285 285 285 284 284
317 319 320 319 318 318 318 318 317 317 316 314 314 314 312 312 313 313 314 315 314 316 316 316 316 315 311 308 307 305 303 303 304 303 303 305 308 307 305 303 299 297 297 297 297 295 292 290 291 291 292 292 291 290 290 289 289 289 289 289 289 288 288 288 288 288 288 288 288 288 288 287 287 287 287 287 287 286 286 286 286 285 285 284 284 284
317 317 317 318 317 316 316 316 314 315 316 315 314 314 312 311 310 311 314 314 314 314 314 313 313 313 312 310 309 307 305 305 305 304 304 305 305 305 304 301 298 296 296 296 297 296 293 291 290 291 292 292 291 291 290 290 289 289 289 289 288 288 288 288 289 289 289 289 289 288 288 288 288 288 287 287 287 286 286 285 285 284 284 283 283 283
316 315 314 317 317 314 314 315 312 311 314 316 315 313 312 310 309 310 311 311 312 313 313 312 310 311 312 311 310 309 308 307 307 306 306 307 306 304 301 298 296 296 295 296 296 295 295 293 289 289 291 291 291 291 290 290 289 289 289 289 289 289 289 289 289 289 288 288 288 288 288 288 288 288 287 287 286 286 285 284 284 283 283 282 282 282
316 316 313 314 315 313 310 311 310 309 311 312 313 313 312 310 309 309 308 308 309 310 311 310 308 309 309 308 309 310 309 309 309 307 305 303 301 300 298 297 297 296 295 295 295 295 296 293 289 288 290 291 291 291 290 290 290 289 289 289 289 288 288 288 288 288 287 287 287 287 287 287 287 286 286 286 285 285 284 284 283 283 282 282 281 280
314 314 311 310 312 311 307 306 306 306 308 308 309 310 309 308 307 306 307 307 307 307 307 307 306 306 305 305 306 307 307 308 307 304 301 299 299 300 299 297 296 295 295 295 295 295 294 290 287 288 290 290 290 290 290 290 289 289 289 288 288 288 287 287 287 287 287 286 286 286 285 285 284 284 284 283 283 283 282 282 282 281 281 281 280 279
310 311 308 307 311 309 304 303 303 303 304 305 305 305 304 304 304 304 305 304 303 304 304 303 303 303 302 302 303 303 303 303 302 301 299 299 300 300 297 296 295 295 295 295 295 296 292 287 286 288 288 289 289 289 289 289 288 288 288 287 287 287 286 286 286 285 285 285 284 284 283 282 282 281 281 280 280 280 280 279 279 279 278 278 278 278
308 307 305 306 311 309 303 302 303 301 301 302 303 302 300 301 303 302 302 302 302 303 302 301 302 301 300 300 301 300 299 298 298 299 298 298 297 296 296 296 295 295 295 295 295 297 294 288 286 288 288 289 289 289 289 288 288 287 286 286 285 285 285 284 284 283 283 283 283 282 281 280 280 279 279 278 278 277 277 276 276 276 276 276 276 276
306 307 306 306 309 306 300 301 303 302 303 304 302 301 300 300 300 299 299 300 300 300 301 300 300 299 299 299 299 299 298 296 295 296 297 295 293 293 294 294 294 294 295 296 296 295 292 288 287 288 289 288 288 288 287 287 286 285 285 284 284 283 282 282 282 282 281 281 280 279 279 278 278 277 277 276 276 275 275 274 274 274 274 274 274 273
304 307 307 306 308 305 298 299 302 304 305 303 300 302 302 300 299 299 298 298 298 298 299 299 298 298 299 299 299 299 298 297 295 294 293 293 292 292 293 293 295 296 295 295 295 290 287 286 288 288 288 288 287 287 286 285 284 284 283 282 282 281 281 281 281 280 279 278 277 277 276 276 276 275 275 275 274 274 274 273 273 273 272 272 272 271
304 306 305 304 306 303 298 300 304 304 304 302 300 301 300 299 298 298 297 297 297 297 298 298 298 299 299 299 298 297 295 294 293 292 291 292 292 293 294 294 295 295 294 294 293 288 286 286 287 287 286 286 286 285 284 283 282 282 281 281 281 281 281 280 280 278 277 276 275 275 275 274 274 273 273 273 273 272 272 272 272 272 271 271 270 270
304 305 304 304 303 301 299 302 304 303 301 300 299 297 295 295 296 296 296 297 296 296 297 297 298 298 298 297 295 293 292 290 290 291 293 293 293 293 294 295 295 293 291 291 290 288 287 288 287 287 286 285 284 283 282 282 281 281 281 280 280 280 279 279 278 277 276 275 274 274 273 273 272 272 271 271 271 271 271 271 271 270 270 270 269 268
302 304 304 304 304 303 302 302 303 302 301 300 300 297 294 295 296 296 297 297 295 296 296 297 298 297 296 295 293 291 291 289 289 291 294 294 293 291 290 291 292 290 288 288 288 288 289 288 288 287 286 284 283 282 281 281 281 280 280 279 279 278 277 276 275 275 274 273 273 272 272 272 271 271 270 270 270 270 270 269 269 268 267 267 267 266
299 302 304 304 304 304 303 303 302 302 301 299 298 296 295 296 297 297 296 296 297 297 295 296 297 295 294 294 292 290 290 291 292 293 293 293 293 291 288 287 286 287 288 288 288 288 287 287 287 286 284 283 281 281 280 280 279 279 278 277 277 276 275 274 273 273 272 272 271 271 271 270 270 270 270 270 269 269 269 267 267 266 265 264 264 264
297 299 300 302 303 303 302 303 302 301 301 299 297 296 294 294 296 297 296 297 299 298 295 294 295 296 296 295 291 290 291 293 295 295 294 293 291 289 289 287 285 286 288 288 287 287 287 286 285 284 283 282 280 279 279 278 278 277 276 275 274 274 273 272 271 271 270 270 269 269 269 269 269 269 269 269 269 268 267 266 265 264 263 263 262 262
297 298 299 300 302 301 301 301 300 299 299 298 297 296 292 292 295 296 296 298 299 296 293 294 296 298 298 294 291 292 294 295 296 295 294 292 288 286 287 287 286 286 287 287 287 287 286 285 284 282 281 280 279 278 277 277 276 275 274 273 273 272 271 270 269 269 269 268 268 268 268 268 269 268 268 268 268 267 266 265 264 263 262 262 261 261
295 297 298 299 300 300 300 300 298 298 298 296 295 295 292 293 295 296 297 299 299 295 292 294 299 300 296 292 291 292 294 294 294 294 293 291 289 287 286 286 286 286 286 286 287 286 284 283 282 280 279 278 277 276 275 275 274 273 272 272 271 270 269 269 268 268 267 267 268 268 268 268 268 268 267 266 266 266 265 264 263 262 262 261 261 261
294 295 297 298 299 298 298 299 297 298 298 296 293 292 292 293 295 297 298 298 297 295 292 292 297 297 293 291 291 292 294 293 291 291 291 291 291 289 286 284 284 285 285 285 285 284 282 280 279 278 277 275 275 274 274 273 272 271 271 270 269 269 268 267 267 267 267 267 267 268 268 268 267 266 266 265 264 264 263 263 262 261 261 261 260 260
294 295 294 296 298 297 297 298 297 297 296 293 292 292 292 295 298 300 298 294 294 296 294 292 294 293 291 292 291 290 292 292 290 289 290 289 289 287 284 283 284 283 283 282 281 281 280 278 277 276 275 274 273 273 272 271 271 270 270 270 269 268 267 266 266 266 266 267 267 267 267 266 266 265 264 264 263 262 262 261 261 261 261 260 260 260
295 295 295 295 296 296 296 297 297 297 295 292 293 295 294 295 298 300 299 295 293 294 294 294 294 291 289 293 293 290 290 290 289 289 289 288 288 286 284 283 283 282 281 280 279 279 279 278 275 274 273 272 272 271 271 271 270 270 269 269 268 267 267 267 266 266 266 266 266 266 266 265 264 264 263 262 262 261 261 261 261 260 260 260 260 260
295 295 296 297 296 294 295 296 296 297 295 293 294 297 295 294 295 296 297 297 296 293 291 294 296 293 289 290 291 290 290 289 289 289 289 289 289 286 284 283 282 281 279 278 277 277 277 276 275 273 272 271 271 270 270 270 270 269 269 269 268 267 267 266 266 266 265 265 265 265 264 264 263 263 262 261 261 261 260 260 260 260 260 260 260 259
294 293 292 294 295 293 293 293 292 294 295 293 293 295 295 294 294 294 293 295 297 295 292 292 296 295 291 289 289 289 289 289 289 289 288 289 289 285 282 281 280 279 277 276 275 275 275 274 273 272 271 270 270 270 270 269 269 268 268 268 267 266 266 265 265 264 264 265 264 264 263 263 262 262 261 261 260 260 260 260 260 260 259 259 259 259
293 291 290 292 294 293 293 292 291 292 294 292 291 292 293 293 292 292 292 293 294 295 293 293 293 293 291 290 290 290 289 288 289 289 288 289 289 284 279 278 277 276 275 275 274 273 273 273 272 271 270 270 269 269 269 269 268 267 267 266 266 265 265 264 264 263 264 264 263 263 263 262 261 261 260 260 260 260 260 260 260 259 259 259 259 259
293 292 292 292 292 291 293 293 291 290 291 291 290 291 292 292 291 290 290 291 292 292 291 290 290 291 291 290 290 290 290 289 289 289 289 289 287 282 277 275 274 273 273 273 273 272 272 272 271 270 270 269 269 269 269 268 268 267 266 266 265 264 264 263 263 263 263 263 262 262 262 261 261 260 260 260 260 260 260 260 260 259 259 260 260 260
293 292 293 293 292 291 291 292 291 290 290 290 291 290 290 291 291 290 289 289 290 290 290 288 286 287 289 290 289 289 289 289 288 288 288 288 286 279 275 274 273 272 272 272 271 271 271 271 270 270 270 269 269 268 268 268 267 266 265 265 264 264 263 263 262 262 262 262 262 262 261 261 260 260 260 260 260 259 259 260 259 259 260 261 261 261
292 292 292 292 292 291 291 291 291 291 291 291 291 291 290 289 289 289 290 289 289 289 290 290 288 285 284 285 286 287 290 290 287 286 286 285 281 277 274 272 271 270 270 270 270 270 270 269 269 269 268 267 267 267 267 267 267 266 265 264 264 263 263 262 262 261 262 261 261 261 261 260 260 260 259 259 259 259 259 260 260 260 261 261 262 263
291 292 291 291 291 291 291 291 291 291 291 292 291 291 291 290 289 290 290 290 290 289 289 289 290 288 287 284 282 283 288 288 284 283 284 281 276 274 273 272 271 270 269 269 269 268 267 267 267 266 266 265 265 265 266 266 265 264 264 264 263 263 262 262 261 261 261 261 260 260 260 259 259 259 259 259 259 258 258 259 260 261 261 261 262 263
Wind_Speed
3 3 2 4 6 8 10 12 12 8 4 4 3 3 4 5 6 6 6 6 1 1 6 6 5 6 9 9 7 8 8 9 7 6 7 6 5 5 6 6 6 6 6 11 16 20 23 24 24 25 26 27 29 30 29 30 30 29 28 27 26 24 21 20 19 18 18 18 18 19 19 19 18 17 16 16 15 15 14 14 13 13 12 11 9 8
3 5 6 9 11 10 8 9 9 5 3 2 3 3 4 5 7 7 6 6 1 3 5 3 3 8 9 4 6 6 7 8 6 6 6 6 6 5 6 7 6 5 6 10 15 19 23 25 25 26 28 29 29 29 30 30 29 29 29 28 26 24 22 22 21 19 19 19 18 19 20 19 18 18 17 17 16 15 14 13 13 13 13 13 11 10
1 4 10 13 10 5 2 4 5 5 5 4 2 2 5 4 4 7 6 5 2 3 4 2 2 9 7 3 6 6 7 5 5 7 6 5 6 6 6 6 5 6 7 8 11 16 21 23 24 26 27 28 28 29 30 29 29 29 29 28 26 24 23 22 21 21 21 20 18 19 19 18 19 20 19 18 17 15 14 14 13 13 13 13 13 12
3 6 12 12 5 3 4 3 6 3 3 3 3 3 5 3 1 4 5 5 3 1 2 2 3 7 4 4 6 6 5 6 7 8 7 6 6 6 6 5 6 7 7 7 8 12 17 21 23 25 25 27 29 30 30 29 30 30 29 28 26 25 24 22 21 20 20 19 18 18 17 17 18 18 15 15 15 15 15 14 14 14 14 13 13 12
7 7 5 3 4 6 7 3 6 5 2 4 6 6 5 5 6 7 4 5 4 2 2 1 3 5 3 2 3 4 4 6 6 7 8 6 5 5 5 6 7 6 6 6 7 9 14 18 21 23 25 26 29 30 29 29 29 29 29 28 26 25 24 23 21 19 17 17 16 16 16 15 16 17 16 17 18 18 16 16 15 14 13 12 12 12
9 6 3 3 3 5 5 5 5 6 3 4 6 10 11 9 9 7 3 5 4 3 3 4 3 5 4 1 4 3 4 5 5 6 7 6 5 5 6 6 6 5 5 5 7 8 12 16 19 23 25 27 28 28 27 27 28 29 29 29 28 27 25 24 22 20 19 20 20 20 21 22 22 23 23 22 21 20 19 18 16 14 12 11 11 11
5 3 3 5 4 5 5 5 5 7 4 3 5 9 11 8 6 5 2 2 0 3 3 3 1 5 5 4 4 5 5 4 4 6 5 4 5 5 5 5 4 5 5 5 7 9 12 15 18 21 24 25 26 26 26 28 29 30 30 30 30 29 28 26 24 23 23 25 25 26 27 27 26 26 23 21 20 20 19 17 16 15 14 12 12 11
3 1 2 4 4 5 4 4 5 7 6 3 4 4 6 6 6 6 5 4 3 3 3 3 1 3 5 4 3 6 6 5 4 5 4 4 4 4 4 4 4 4 4 4 5 7 11 14 17 19 21 23 24 25 27 29 30 30 31 31 30 30 29 27 26 26 27 28 28 28 28 28 27 25 24 21 20 19 17 17 17 16 15 15 14 13
2 1 2 6 5 4 5 4 7 9 4 6 3 6 6 6 5 5 5 2 1 1 4 4 0 2 5 4 1 4 4 2 3 2 2 2 3 3 3 3 3 3 3 4 4 6 10 14 16 18 20 22 24 26 28 29 29 30 30 31 31 31 30 28 28 29 30 31 30 30 30 29 28 26 25 24 23 22 21 20 20 19 18 17 16 15
1 3 5 7 5 5 5 2 7 9 4 4 5 6 5 5 5 4 5 3 2 1 5 6 4 2 5 4 1 2 3 3 3 3 2 2 1 2 2 2 2 3 3 4 5 8 11 13 15 17 19 21 23 24 26 27 28 29 30 30 31 31 30 29 28 30 31 31 31 31 30 30 28 27 26 25 26 26 25 25 25 23 23 22 21 20
3 1 2 4 4 6 4 3 3 5 3 4 5 5 6 5 4 4 2 3 2 3 6 8 8 5 4 5 2 3 2 4 6 4 3 3 1 2 1 0 1 3 3 4 5 9 11 12 14 17 19 19 21 23 25 26 27 28 28 29 30 30 28 27 27 28 30 30 30 30 29 29 28 27 26 27 28 27 26 27 26 25 25 24 24 24
5 2 2 2 2 4 5 4 2 2 4 5 4 4 3 4 4 4 4 3 1 6 5 4 4 5 4 4 2 3 4 2 8 8 8 7 5 4 3 1 0 3 3 4 4 6 9 11 13 16 17 17 19 21 23 24 24 26 26 27 28 28 26 25 25 27 28 29 28 27 27 27 26 25 26 26 26 26 25 25 25 24 24 24 24 24
4 4 3 2 1 4 6 4 2 4 5 5 4 4 3 3 3 2 3 0 3 6 3 2 1 2 6 4 2 3 5 4 5 8 11 10 8 6 5 3 1 3 3 4 4 4 6 8 10 12 14 15 17 18 19 21 22 24 24 25 26 26 24 24 24 26 27 28 28 26 26 26 25 25 25 25 24 23 23 23 23 24 24 24 24 24
3 5 2 1 2 2 6 5 2 1 1 4 5 4 4 2 0 3 3 2 4 5 3 2 1 2 5 2 1 4 5 5 3 6 8 9 9 7 5 4 2 2 2 3 3 3 5 6 8 10 11 13 15 15 17 19 20 22 23 23 25 24 22 22 23 25 27 28 27 26 26 26 25 25 25 24 24 23 23 23 23 23 23 23 23 23
1 5 2 4 2 1 5 5 5 5 3 3 4 5 4 4 4 4 4 3 4 4 2 2 1 2 3 1 3 4 4 3 3 6 6 6 6 5 4 3 2 1 1 1 2 3 3 5 6 8 9 11 12 14 16 17 18 20 21 22 22 22 21 21 22 24 26 26 25 25 25 25 24 24 24 24 23 23 23 23 23 23 23 23 23 22
2 5 5 3 2 2 3 2 4 6 3 2 3 4 2 4 4 2 3 5 3 3 2 2 2 3 3 1 4 2 3 5 5 5 6 6 4 4 4 4 3 3 2 1 0 0 1 3 5 6 8 9 11 13 15 16 17 18 19 20 20 20 19 20 21 22 23 23 23 23 23 22 22 22 22 22 22 23 23 23 23 24 24 24 24 24
2 4 5 2 2 2 2 2 2 3 3 2 2 3 4 4 5 1 2 1 3 2 4 2 2 3 1 1 4 3 4 4 3 4 6 6 5 5 4 5 4 4 4 3 4 4 4 5 5 6 8 9 11 13 14 15 15 16 17 17 17 18 18 18 19 20 20 20 20 21 20 20 20 20 20 20 20 20 20 20 21 21 22 23 24 24
3 4 5 0 1 1 0 2 3 2 3 5 2 5 3 2 4 3 1 2 2 3 4 1 3 3 2 1 2 2 3 4 4 5 6 5 5 5 6 5 5 5 5 5 5 6 6 7 7 7 8 8 10 11 12 13 13 14 14 15 15 16 17 17 18 18 19 19 19 19 19 18 17 17 17 17 16 16 17 17 17 18 19 20 21 22
3 2 6 1 1 3 3 3 2 4 3 4 3 3 3 2 1 2 2 2 2 4 4 2 3 3 4 4 2 5 9 9 8 7 7 7 7 6 6 6 6 5 5 5 5 5 7 8 8 8 7 7 9 10 10 10 10 12 12 13 14 14 15 15 15 16 17 17 17 16 16 15 13 13 13 13 12 13 14 14 15 16 16 17 19 19
2 1 4 2 1 3 4 2 2 2 2 3 1 1 2 2 3 2 2 3 3 3 4 5 4 3 5 5 8 11 13 12 12 10 9 9 8 8 7 6 6 6 6 6 5 5 7 9 8 8 7 7 7 8 8 8 9 10 10 11 12 12 12 12 12 13 13 13 12 11 10 9 8 8 9 10 10 10 12 12 13 14 14 15 17 17
2 1 3 4 3 1 1 2 5 5 2 1 1 1 1 0 1 1 1 2 3 3 3 5 6 5 4 3 8 11 11 13 14 12 9 8 9 8 7 7 7 6 6 6 5 6 8 10 8 8 8 7 7 7 7 7 7 8 9 9 10 9 9 9 9 9 8 8 8 7 6 6 7 7 8 10 10 11 12 12 13 14 14 15 17 17
1 2 3 1 1 2 4 4 4 6 5 5 4 4 4 3 2 2 4 1 1 2 3 4 8 7 3 2 4 6 9 13 13 11 9 9 9 9 7 7 7 7 7 6 6 7 9 10 9 9 8 7 7 6 6 6 5 6 6 7 7 7 7 6 6 7 6 6 7 7 7 9 10 10 11 13 13 13 13 13 14 14 15 17 18 19
3 3 2 2 2 5 6 3 2 5 4 5 3 3 3 3 4 4 7 3 1 2 2 2 6 6 2 2 3 4 7 10 10 11 10 9 9 8 7 6 6 6 6 6 6 8 11 12 11 10 9 8 7 6 6 5 4 5 5 5 5 5 4 4 4 4 4 5 5 6 6 8 8 8 10 11 12 13 13 14 14 15 16 18 19 20
2 2 1 3 3 2 4 4 2 1 3 2 2 2 3 3 3 4 5 2 1 3 2 2 6 5 1 2 1 3 5 7 8 9 9 7 7 6 6 6 6 6 6 6 6 9 11 12 12 11 9 8 7 7 6 6 6 6 5 5 4 3 2 1 1 1 3 3 4 5 6 7 7 7 9 9 10 11 12 13 14 15 16 17 19 20
2 1 2 1 4 4 4 3 3 3 1 2 2 1 2 3 3 2 1 1 1 5 5 5 7 4 2 4 4 3 6 9 9 8 6 6 5 5 5 5 6 6 6 6 6 7 9 10 11 11 11 10 10 9 9 8 8 7 6 5 4 3 3 4 4 5 6 6 7 7 8 9 9 10 11 11 12 13 14 15 16 16 17 18 20 21
3 3 3 3 6 8 5 3 2 2 1 1 2 3 3 4 5 2 1 2 3 3 4 6 6 3 3 4 4 1 6 8 7 5 4 4 4 4 4 5 6 6 7 7 7 6 7 8 10 12 12 13 13 12 11 10 9 9 7 7 7 7 7 6 6 5 5 6 7 8 10 11 12 14 15 15 16 17 18 18 19 19 20 21 23 25
2 2 3 6 8 8 5 5 4 3 3 2 3 4 4 4 4 3 3 3 4 1 3 7 3 1 4 4 3 3 3 6 6 5 4 5 5 5 5 5 5 5 6 7 7 6 6 7 10 13 15 15 15 14 13 11 10 9 8 7 6 6 4 3 3 4 5 7 9 10 12 14 15 16 17 18 18 19 20 20 21 21 22 23 25 27
4 2 4 6 7 6 3 5 4 4 4 6 5 6 6 4 5 5 4 4 3 1 7 8 3 2 7 6 6 6 5 5 7 6 6 6 6 5 3 4 5 6 6 6 6 6 6 7 9 13 14 15 15 14 13 11 9 6 5 4 3 1 1 2 4 5 7 9 11 13 14 16 17 18 19 20 21 22 23 23 24 24 25 26 27 28
4 4 3 4 5 3 2 2 3 4 3 3 5 8 8 6 6 6 6 6 6 6 10 5 4 6 9 6 6 8 7 7 7 7 6 5 4 3 4 6 7 7 6 6 6 7 7 7 9 11 13 14 14 14 12 9 7 5 4 3 2 0 1 3 5 7 9 11 12 14 15 17 18 19 21 22 23 25 26 26 27 28 29 30 30 31
3 2 1 3 3 2 1 2 1 3 2 4 7 11 9 6 6 6 8 10 9 9 10 5 2 8 10 6 6 7 6 6 6 6 5 4 4 5 6 8 8 7 7 7 8 7 6 7 9 10 12 13 13 11 8 6 5 5 5 4 2 1 3 5 7 9 10 11 13 14 16 17 19 20 22 23 24 25 26 27 28 29 30 31 32 33
1 1 1 2 0 2 2 1 3 1 1 4 12 13 4 1 4 9 11 9 4 6 9 7 6 11 11 6 5 5 5 5 6 7 6 5 6 6 7 8 8 7 7 7 7 6 5 7 9 10 10 10 9 8 7 7 7 6 5 3 1 2 4 6 8 9 10 11 13 15 17 19 20 21 21 22 23 24 25 26 28 29 31 32 33 35
1 1 2 3 1 3 2 2 3 3 2 6 16 13 4 4 9 10 7 6 6 8 9 6 6 11 8 1 2 5 5 6 7 7 6 5 5 7 8 8 7 7 7 6 5 4 4 6 9 10 10 9 8 8 8 8 7 6 4 2 2 4 5 7 9 10 12 13 15 17 18 19 20 20 21 21 23 24 26 28 30 31 33 34 34 35
3 3 2 2 3 2 1 3 4 5 3 8 12 8 8 10 13 9 5 7 9 8 6 7 9 9 5 1 3 7 6 6 7 6 6 6 6 6 7 7 7 6 6 5 5 5 6 8 10 12 11 10 10 10 9 8 7 4 3 1 3 5 6 8 10 12 13 14 15 16 17 19 20 21 22 23 25 27 29 31 32 33 33 34 34 34
3 4 3 3 3 1 1 3 4 2 6 8 3 4 8 10 11 10 10 10 9 7 6 8 7 5 4 5 8 9 6 5 6 6 6 5 6 6 6 5 5 6 5 5 5 6 9 11 12 13 12 12 11 10 9 8 6 4 2 2 4 6 8 10 12 13 14 14 14 15 16 17 19 21 24 26 28 30 31 32 33 33 33 33 34 34
4 4 2 2 2 2 1 2 2 6 8 3 1 2 5 6 7 8 8 8 9 10 9 9 8 7 8 9 7 5 4 4 4 5 5 5 6 7 6 5 6 5 6 6 5 7 9 12 14 14 14 13 12 11 9 7 5 4 3 4 6 8 10 12 13 13 14 14 14 15 16 19 21 23 26 27 28 30 31 31 32 33 33 33 33 33
5 4 2 2 2 1 2 4 7 6 4 5 3 2 1 2 3 2 4 9 10 10 10 10 10 11 10 7 3 1 1 1 1 3 4 5 5 6 6 7 7 7 8 9 10 11 12 14 17 18 16 15 13 11 9 7 6 5 5 6 8 10 11 12 13 13 13 14 15 17 19 21 24 26 27 28 29 29 30 31 31 32 32 33 34 33
4 4 2 2 4 2 2 6 5 4 9 13 9 3 3 4 6 5 5 9 7 8 9 9 10 11 8 4 2 2 2 3 2 4 5 6 7 7 7 8 9 11 12 13 14 13 14 15 18 19 17 15 14 12 10 8 6 5 6 7 9 10 11 12 12 13 13 15 17 19 21 22 25 26 27 27 28 29 30 30 31 31 31 32 34 33
2 3 3 4 4 2 3 5 4 4 9 11 5 3 3 4 6 6 4 6 5 7 9 10 9 8 5 2 4 4 3 2 2 5 6 8 7 6 7 9 12 15 16 15 14 12 12 15 17 18 17 16 14 12 9 8 6 6 7 8 9 10 10 11 11 12 14 16 18 20 21 22 23 24 25 26 27 28 30 30 30 31 29 29 32 33
1 1 1 3 3 2 3 4 5 7 9 7 5 4 2 2 5 6 2 5 6 6 7 8 7 6 5 5 5 5 5 2 4 6 5 8 8 7 7 8 11 15 16 15 14 14 15 18 19 18 17 15 14 11 9 7 6 6 7 7 8 9 10 11 11 13 15 17 19 20 20 20 21 22 24 26 27 28 29 30 30 30 29 28 30 32
2 1 1 4 5 6 7 5 4 5 6 5 6 4 2 2 6 8 1 7 6 5 6 8 8 8 7 6 6 6 5 5 5 6 5 7 8 9 11 11 13 15 16 14 15 16 18 20 21 19 18 15 13 10 8 6 6 6 6 7 8 9 10 11 12 14 16 18 19 19 19 19 20 21 23 25 27 28 28 30 30 31 31 31 30 31
1 1 2 5 7 9 9 6 4 4 5 5 6 6 5 3 6 3 6 7 4 6 7 8 9 8 7 7 6 5 5 7 6 4 3 6 7 9 13 15 14 15 16 16 17 19 20 21 20 18 16 14 11 8 6 6 6 6 6 7 9 10 10 12 14 15 17 18 19 19 19 19 20 21 22 23 25 28 28 28 29 30 31 32 32 31
1 0 2 4 5 5 5 4 4 6 5 7 6 4 5 4 2 5 6 3 6 8 8 7 8 7 7 8 7 6 7 9 7 3 4 7 8 9 12 13 11 10 13 15 17 20 21 20 17 16 14 11 9 7 6 5 5 6 7 9 9 10 11 13 15 16 17 18 18 18 19 19 20 21 22 23 24 26 29 28 28 29 30 31 31 31
5 4 2 4 3 2 2 4 5 6 4 10 10 2 2 5 6 5 3 2 5 7 7 7 7 6 7 7 8 8 8 9 7 5 5 6 7 8 9 11 13 14 15 16 18 21 21 19 17 15 12 9 7 6 5 5 6 8 9 10 10 11 13 14 15 16 17 18 18 19 19 20 21 21 22 23 23 25 28 29 28 28 28 28 29 31
4 5 3 4 3 4 4 6 5 3 4 10 10 5 6 8 6 5 5 4 4 5 6 6 7 7 8 8 8 9 8 8 8 7 5 6 6 8 8 10 13 15 15 17 19 19 19 18 15 13 10 7 5 5 6 7 9 10 11 11 12 13 15 15 16 17 17 18 18 19 20 21 22 22 22 23 23 24 26 28 28 28 27 26 27 29
6 5 5 4 3 4 6 7 4 2 3 7 8 6 8 10 7 6 6 5 4 5 5 5 6 7 8 8 8 7 7 8 8 7 6 7 7 7 8 10 12 15 16 16 17 16 16 15 14 11 8 6 5 6 7 8 10 12 12 13 14 15 15 15 16 17 17 18 19 20 21 22 23 23 23 22 22 23 25 27 28 27 26 26 27 27
5 3 4 2 2 4 5 5 3 1 3 7 8 7 8 9 7 6 6 5 5 6 6 6 7 7 8 8 8 7 7 8 8 8 8 7 7 7 8 9 11 15 16 17 16 15 14 13 11 9 7 5 6 7 8 9 10 12 13 13 13 14 14 15 16 17 17 19 20 21 22 23 24 24 24 22 22 23 24 26 27 27 26 27 28 27
3 3 3 3 2 4 5 4 6 6 6 7 9 9 8 8 6 6 7 7 6 6 7 7 7 6 6 7 8 8 9 9 8 8 7 7 6 6 8 10 12 15 17 18 17 15 13 11 9 8 6 5 6 8 9 9 10 11 12 12 12 12 13 14 15 17 18 19 21 22 22 24 25 25 24 24 23 24 25 26 26 25 25 28 28 26
2 3 4 4 5 6 7 5 6 5 4 4 7 8 8 9 8 6 7 7 7 5 5 5 6 5 5 6 8 9 9 8 8 8 8 7 5 5 8 12 15 16 17 17 15 13 11 10 8 6 6 6 7 8 10 10 10 11 11 11 11 11 13 14 14 17 19 20 21 22 23 23 24 25 25 25 25 25 26 27 27 25 25 28 29 27
1 2 3 4 6 8 7 5 3 2 6 7 8 8 8 9 8 7 7 7 6 6 6 5 6 7 7 7 8 8 8 9 8 8 8 6 4 6 10 14 16 17 17 16 14 11 10 8 7 6 6 7 8 9 10 10 10 10 10 10 10 11 12 14 15 17 19 20 21 23 23 24 24 24 25 26 26 26 26 28 27 25 25 29 28 26
2 5 4 3 5 9 8 8 6 3 5 8 9 10 11 8 6 6 8 7 7 8 7 6 7 8 8 10 9 8 8 10 8 7 7 6 6 10 14 17 17 17 16 15 12 10 8 7 6 6 6 7 8 9 9 9 9 8 8 9 9 10 12 14 16 18 20 20 22 23 23 24 24 24 24 25 26 27 28 29 28 23 22 26 28 26
7 10 8 5 8 11 9 7 6 5 6 9 8 7 8 7 6 8 9 9 9 10 8 8 9 8 7 10 12 11 9 9 8 7 6 5 9 13 17 19 19 17 15 13 11 9 8 7 6 6 6 7 7 7 7 7 7 7 7 8 8 10 12 14 16 19 20 21 22 23 23 23 24 24 24 25 25 26 27 30 32 29 23 21 24 26
Wind_Direction
111 142 183 208 218 212 208 206 211 220 201 199 215 223 223 236 264 266 269 275 204 273 275 261 273 278 268 282 330 348 13 41 50 74 70 59 58 48 50 44 34 40 25 17 26 32 36 39 41 44 47 52 58 61 64 67 68 69 72 74 73 74 78 81 83 86 88 87 86 85 83 80 76 75 76 74 70 68 66 64 60 55 50 44 36 22
111 180 220 224 222 221 216 210 220 240 243 227 220 252 264 240 259 268 267 285 218 177 261 305 318 280 269 305 360 9 38 33 28 70 69 61 63 50 49 43 32 37 23 24 28 31 36 39 42 45 47 49 51 52 57 61 64 68 70 70 71 73 76 77 78 81 82 83 84 85 85 82 78 73 70 69 66 66 67 66 63 60 55 49 44 38
186 211 234 234 225 229 238 179 192 226 228 231 209 228 263 247 278 285 279 312 19 173 261 323 288 274 285 43 39 33 60 47 32 60 56 53 60 46 43 36 30 35 25 22 23 26 33 38 42 46 47 49 50 51 55 59 62 65 66 66 68 71 74 77 79 81 83 85 87 87 87 85 81 75 71 71 69 65 64 63 63 62 60 55 50 44
207 235 238 234 204 203 251 171 145 180 216 206 183 186 249 251 309 281 284 331 4 184 268 244 240 276 288 87 66 47 70 71 55 60 55 49 57 52 46 35 34 35 22 16 17 21 29 36 40 43 45 49 52 52 53 56 59 62 64 65 67 68 71 75 79 83 87 89 89 89 90 89 87 83 81 80 72 65 62 61 60 58 56 55 53 49
233 245 234 193 145 185 233 224 155 166 232 234 208 202 232 240 220 229 276 333 344 354 359 10 312 296 268 158 105 75 70 65 52 57 55 42 48 56 52 44 38 35 24 20 18 15 25 34 38 43 47 50 51 51 50 53 57 62 66 67 68 69 70 73 78 85 91 92 91 92 91 89 86 79 73 68 60 56 57 56 55 53 53 52 49 46
255 246 147 122 141 163 204 237 191 165 202 273 232 209 218 229 227 234 304 358 2 333 343 25 341 294 312 310 162 126 59 52 39 48 56 40 37 46 46 42 33 33 31 26 27 22 27 35 40 45 48 50 52 52 53 55 59 63 67 69 70 70 70 72 76 82 87 86 83 81 76 70 67 61 56 54 52 53 55 55 54 53 51 48 43 39
261 256 153 180 171 149 189 249 224 166 152 278 246 206 211 218 215 218 187 105 203 257 295 32 246 265 316 317 192 144 87 72 50 47 53 39 36 43 43 38 25 28 31 29 32 29 33 38 42 45 47 51 54 57 60 61 62 64 66 68 69 68 68 70 73 77 79 80 78 76 74 69 66 61 57 56 57 57 57 58 57 54 50 45 39 34
227 27 104 180 155 152 196 251 222 160 130 247 252 155 166 184 188 188 167 169 225 256 319 2 149 258 291 280 208 132 105 74 59 54 45 37 37 39 42 40 32 24 23 31 35 31 35 40 44 47 50 54 59 63 66 66 65 67 68 69 69 69 68 68 71 74 75 76 76 76 76 73 70 67 65 63 62 60 59 58 55 51 48 43 38 33
192 139 189 170 147 181 210 216 183 154 153 243 211 110 129 152 154 141 130 156 300 10 307 301 124 268 266 270 346 111 124 92 103 121 81 63 52 46 44 37 39 35 26 34 38 36 40 44 49 53 56 60 63 66 69 70 70 71 71 72 71 70 69 68 69 72 74 75 75 74 74 73 71 69 68 65 63 60 58 55 52 47 45 41 36 31
239 212 195 153 153 206 208 192 173 165 195 225 130 96 68 73 80 78 103 112 36 22 250 233 185 221 268 280 312 147 181 200 171 169 166 135 95 77 56 21 28 37 35 39 41 41 44 50 56 61 63 64 67 70 73 74 74 74 74 73 72 71 70 69 69 71 72 72 71 70 69 68 67 65 64 62 58 55 54 53 50 48 45 42 40 36
296 290 178 148 172 192 155 97 160 166 157 137 106 68 36 33 40 38 61 83 46 275 246 222 197 190 266 287 229 181 212 186 161 160 186 182 187 177 152 347 4 25 26 30 38 44 49 57 64 67 67 66 69 74 76 76 76 76 76 75 75 72 71 70 69 69 70 68 67 66 64 63 61 59 57 55 53 50 48 48 47 46 44 42 40 38
325 316 254 242 178 136 103 79 73 68 90 111 93 69 47 340 13 24 357 41 170 253 266 257 206 174 228 265 233 248 298 203 170 169 176 176 183 195 186 191 316 20 26 28 33 41 49 55 60 65 67 68 72 75 76 78 79 79 79 78 77 75 72 71 69 69 69 68 67 66 64 63 60 58 56 55 53 49 46 44 42 40 39 37 35 33
301 245 261 298 217 134 110 85 28 14 50 96 106 96 90 321 351 347 308 307 229 253 279 288 156 181 237 241 240 279 304 278 210 173 166 167 172 185 192 194 167 35 32 34 35 34 43 50 55 62 68 71 75 78 80 83 83 82 81 79 78 76 73 72 70 70 70 69 68 67 67 66 65 63 62 61 60 56 53 49 46 43 40 37 35 32
302 296 315 160 268 179 141 145 185 257 123 145 150 135 137 155 200 268 270 269 271 274 282 266 178 267 269 267 265 272 292 291 225 152 154 160 163 173 181 179 135 60 31 23 32 34 45 54 59 67 73 77 80 82 85 86 86 85 83 81 81 79 76 73 71 69 68 68 67 65 65 64 63 62 61 61 60 58 56 53 51 49 46 44 41 38
220 302 258 181 251 216 176 180 164 145 143 175 161 135 151 160 171 225 225 218 264 286 296 280 216 209 226 282 290 273 306 346 85 118 129 140 151 156 146 140 134 121 85 23 33 36 51 66 72 76 79 81 83 83 84 85 85 84 82 81 80 78 75 72 69 66 65 65 63 60 58 56 54 53 52 51 49 47 45 43 42 40 38 37 35 32
171 259 263 258 288 144 181 218 123 112 128 202 127 109 168 182 168 216 210 174 194 293 290 221 220 217 187 273 317 329 32 45 79 112 130 145 147 136 142 164 177 183 189 178 134 167 119 102 95 92 89 87 85 84 83 82 82 81 79 78 77 74 71 67 65 63 61 60 57 54 51 48 46 44 42 42 39 37 34 31 30 28 25 23 21 19
153 266 283 308 335 98 167 216 119 122 183 164 122 181 219 175 133 133 267 106 89 263 264 192 225 283 305 333 342 26 69 79 107 141 154 168 162 153 182 196 191 194 195 195 197 191 167 135 119 110 101 95 91 87 83 80 79 79 78 78 76 72 68 63 61 60 59 57 55 51 47 44 41 38 36 35 33 30 27 24 22 19 17 14 11 9
159 267 288 96 163 301 210 146 58 48 132 123 168 217 206 129 95 98 241 334 34 245 269 188 199 245 243 255 341 43 148 175 193 189 182 186 181 188 205 204 200 200 196 197 198 189 171 149 135 126 112 101 96 92 87 83 80 79 77 76 75 70 65 61 58 58 55 54 52 48 45 41 37 36 33 31 29 25 20 19 17 14 12 9 5 2
126 258 296 352 167 300 358 83 45 359 68 122 185 201 122 151 178 95 171 232 241 245 279 277 233 226 207 204 192 194 196 193 198 200 197 197 198 207 212 207 207 201 195 199 197 193 177 161 148 138 128 114 105 98 92 90 87 85 83 79 77 72 67 64 61 60 56 53 51 47 43 39 34 32 30 27 24 19 16 14 11 10 7 3 360 356
109 184 286 321 276 306 9 72 172 277 358 57 103 18 54 160 173 151 163 181 200 237 270 277 282 264 227 198 182 197 194 182 186 194 197 200 201 206 204 198 200 197 196 195 190 192 180 167 158 147 139 130 119 112 105 103 99 95 89 85 83 79 77 73 68 65 61 56 54 49 44 38 30 27 22 18 15 11 9 5 0 359 357 354 353 348
83 167 247 299 317 291 191 207 188 189 189 124 165 228 277 176 146 226 237 135 154 200 235 268 274 261 248 192 183 197 189 180 186 185 186 200 205 208 205 195 197 196 197 196 186 184 177 168 161 148 142 140 137 133 127 121 114 106 101 96 93 90 89 85 78 74 69 62 55 46 37 23 12 8 1 359 359 356 355 353 348 345 341 340 342 339
146 159 195 259 329 192 226 248 197 186 174 159 184 205 196 169 135 244 258 212 147 204 196 241 268 266 254 203 194 192 181 184 185 172 176 200 205 208 209 199 199 197 195 196 188 177 173 170 165 157 154 154 154 153 150 142 130 121 115 109 106 103 98 90 81 70 59 49 35 24 17 7 1 356 350 348 347 346 344 341 338 334 329 329 332 331
149 117 148 222 213 209 244 277 188 185 155 137 180 188 160 151 143 205 242 232 191 240 172 186 264 267 250 220 228 209 186 180 175 169 178 199 206 209 209 202 201 200 196 193 183 173 172 173 173 174 174 175 175 174 170 162 153 149 143 132 124 116 104 87 75 59 41 30 19 12 2 351 345 338 334 333 332 332 330 328 327 324 320 320 322 323
117 104 167 266 296 309 303 326 10 99 102 117 235 151 141 175 157 190 229 193 163 237 214 233 255 256 323 336 272 193 166 156 169 181 182 193 211 213 206 202 197 192 193 188 176 173 174 175 178 186 190 191 192 191 191 190 186 185 180 173 165 148 131 86 356 319 317 316 319 321 318 318 319 315 316 318 316 318 318 316 316 315 313 313 314 316
211 150 126 257 304 320 323 336 350 347 51 183 240 228 188 182 124 95 234 129 204 228 212 235 251 250 334 3 30 105 148 159 177 191 185 187 208 214 207 209 201 186 182 179 171 174 179 181 184 192 200 204 206 208 206 206 206 207 206 211 227 248 263 274 273 273 279 283 291 303 311 318 322 322 323 323 320 319 318 316 314 313 313 313 312 312
192 178 144 181 240 252 249 225 232 275 259 206 246 250 216 176 161 179 200 192 232 224 199 231 253 281 324 349 11 68 163 174 188 206 221 219 216 220 220 214 200 182 175 175 177 181 185 191 197 203 210 213 214 216 215 215 218 222 229 238 249 261 267 268 269 275 288 300 312 321 325 326 326 326 325 323 320 318 316 314 312 312 312 312 311 311
117 187 197 200 229 242 229 219 207 154 161 214 241 236 217 177 157 143 137 194 225 238 247 243 236 336 295 278 282 266 193 195 213 225 241 241 228 227 229 217 196 185 181 176 177 182 186 199 210 214 218 220 219 220 220 223 227 230 237 243 249 259 265 277 304 329 335 335 335 333 330 328 326 324 322 319 317 315 313 311 310 309 309 310 310 310
110 231 229 203 236 247 192 207 205 159 187 205 208 228 222 168 139 151 185 208 170 163 256 247 163 186 253 235 220 238 234 227 237 240 241 245 246 237 217 195 189 192 190 178 176 187 193 206 217 219 221 222 222 224 227 230 235 236 235 232 228 241 327 3 354 348 343 338 334 329 325 322 319 316 313 311 310 309 308 308 308 308 308 308 308 308
133 236 226 176 238 249 143 202 189 158 216 231 219 236 232 201 181 185 211 217 191 217 255 255 148 208 248 231 197 216 219 216 228 235 237 247 254 231 189 184 193 193 186 183 192 200 203 210 217 219 224 226 227 230 232 230 227 220 208 194 169 145 347 349 341 335 332 328 323 319 315 311 308 306 304 303 302 302 303 303 303 304 305 305 307 308
141 229 186 148 233 228 158 304 91 142 253 276 256 248 242 234 216 199 219 226 217 234 262 277 238 243 254 236 203 211 212 214 234 250 256 251 224 205 192 191 194 189 183 191 202 207 209 213 215 216 220 221 218 216 211 199 190 187 185 180 179 294 327 331 328 326 324 320 315 311 308 305 303 302 301 301 301 300 300 301 301 302 303 304 305 307
166 186 100 103 251 273 276 358 74 108 229 263 263 254 227 117 245 232 234 232 223 251 261 268 273 266 261 233 203 215 208 213 247 259 259 246 211 191 190 193 192 187 191 203 210 210 206 203 201 196 191 189 186 179 173 172 173 176 178 178 221 313 324 323 321 320 317 313 311 309 307 305 304 303 303 302 301 301 302 303 304 305 305 305 306 307
171 175 62 84 189 256 265 127 113 63 41 276 268 258 184 173 240 241 229 206 202 231 247 255 259 260 262 209 181 228 208 201 230 238 236 234 207 185 187 191 190 191 197 209 217 211 197 188 185 179 171 167 168 168 170 175 176 177 183 205 292 315 318 318 320 319 316 313 310 308 306 305 305 305 306 306 305 306 307 308 309 310 310 309 310 310
148 155 115 139 201 235 87 118 100 56 7 274 265 238 189 214 240 248 238 220 210 204 213 229 239 251 271 332 255 255 235 210 221 221 215 215 203 196 195 187 187 199 204 206 206 196 191 192 189 184 176 173 175 174 171 175 180 182 191 254 311 318 321 322 322 321 319 315 311 308 305 304 304 305 306 308 309 310 311 312 312 313 313 313 312 312
153 153 163 183 193 203 138 96 84 86 256 261 257 160 188 213 230 237 241 237 216 193 205 233 250 270 277 246 246 253 249 233 223 215 211 198 185 193 204 196 197 209 209 201 197 191 190 194 195 189 180 177 178 175 173 177 183 192 213 279 307 313 317 317 318 319 318 315 311 308 305 303 304 306 306 308 310 311 312 314 314 315 314 313 313 312
161 160 174 166 151 181 153 109 175 228 239 254 47 186 211 205 206 221 245 250 226 210 221 239 252 254 241 238 246 252 253 252 228 212 209 195 179 177 189 206 209 202 198 198 204 205 195 189 188 184 178 178 179 177 178 182 186 200 238 282 298 304 310 311 312 314 312 310 308 305 305 307 307 309 310 312 313 314 315 316 315 315 315 314 313 312
162 164 170 147 154 154 123 178 222 254 300 301 272 211 118 126 159 176 272 263 234 209 211 227 238 241 240 245 260 184 197 244 268 231 223 210 196 179 180 199 200 193 195 195 197 203 202 197 193 187 181 179 181 181 185 193 202 221 256 286 297 304 309 308 309 310 306 303 304 304 306 309 310 312 314 315 316 316 316 316 315 314 315 313 312 311
159 164 179 204 204 190 183 217 241 317 310 285 265 198 159 170 160 163 243 260 233 194 195 213 231 243 248 242 181 154 128 69 13 284 255 234 219 198 194 203 196 192 198 198 199 205 208 204 197 189 183 180 182 188 195 205 222 248 272 291 301 305 307 307 306 305 301 300 302 303 306 309 311 314 315 315 315 315 315 315 314 314 315 313 311 311
167 188 199 220 226 178 179 240 253 261 266 266 244 191 201 188 163 161 213 266 249 198 196 203 216 232 234 190 169 155 114 85 281 266 248 234 222 199 209 220 206 196 197 197 199 202 200 195 189 185 184 184 186 195 205 217 239 265 284 297 304 303 304 306 302 297 296 298 301 303 307 311 312 313 313 313 314 314 314 314 314 313 314 311 309 308
96 24 184 218 239 194 192 233 233 237 255 251 216 228 276 152 134 107 60 285 261 215 195 189 194 207 204 185 166 143 132 176 253 262 239 223 213 195 201 216 210 204 204 201 200 195 186 183 180 181 186 189 191 200 211 228 253 278 292 298 302 302 304 302 296 294 296 299 301 304 309 312 312 311 312 312 312 313 314 314 313 313 312 309 307 306
126 91 163 214 228 222 225 238 234 244 261 237 212 230 253 136 105 90 21 271 253 212 186 171 182 205 200 173 156 152 165 192 232 251 226 202 201 196 196 202 206 207 205 199 196 192 183 180 180 181 184 188 194 203 219 243 268 287 295 299 302 303 302 296 293 296 299 300 303 308 312 314 312 311 312 312 312 313 314 313 313 313 311 309 308 307
138 171 203 217 227 226 228 238 258 264 250 213 199 196 177 113 81 124 225 240 204 196 196 178 187 199 178 161 168 184 205 215 223 233 192 175 185 203 210 213 212 210 205 200 195 188 181 180 182 182 182 187 195 208 231 258 281 291 295 303 305 302 297 295 297 301 302 304 308 313 315 314 312 312 312 313 314 313 313 313 312 311 311 310 309 308
149 159 244 223 223 230 230 232 266 273 231 171 169 190 166 141 174 220 227 207 168 187 199 196 203 197 172 176 190 199 222 233 227 201 170 180 192 207 213 210 203 200 200 195 190 184 178 176 176 176 178 185 199 219 247 270 289 296 300 307 307 301 298 299 303 305 306 309 313 315 315 314 313 314 314 315 316 314 312 312 312 310 310 309 308 308
165 157 222 225 190 165 214 219 240 265 213 143 133 139 211 197 209 210 199 200 189 184 187 200 215 203 178 190 210 217 231 244 241 219 201 204 217 225 216 201 194 194 189 180 180 181 178 173 171 173 178 188 205 234 260 279 295 302 308 312 308 303 303 305 308 309 309 312 315 315 316 316 316 317 317 317 317 314 310 311 311 310 309 308 308 307
186 165 190 229 193 151 189 216 212 216 178 153 147 168 213 213 204 164 163 200 211 189 180 195 216 210 191 197 218 225 232 245 246 235 220 215 226 235 228 210 200 193 183 175 176 179 178 174 170 171 181 196 220 251 272 292 304 308 311 313 309 306 308 309 309 310 311 314 316 316 318 320 320 320 319 318 317 313 310 311 311 309 308 308 307 304
225 192 173 199 203 175 198 223 219 142 162 186 188 194 209 221 217 175 171 194 204 195 184 187 211 214 200 203 219 227 232 238 240 239 234 226 225 227 226 216 200 187 178 172 171 174 176 175 173 174 187 210 240 265 284 302 310 310 311 311 308 307 308 309 309 310 313 315 317 319 322 322 321 321 320 319 317 313 311 311 310 308 308 308 305 301
239 183 146 169 256 254 240 222 201 214 210 206 214 219 217 225 219 184 185 208 206 191 181 186 206 212 199 198 212 226 233 234 236 239 239 238 239 228 214 201 187 178 174 168 165 169 172 172 176 185 197 223 252 273 293 307 310 308 308 308 306 307 307 308 310 312 314 317 319 322 324 323 322 322 321 319 318 314 312 311 309 307 307 306 302 299
268 150 162 204 235 258 257 201 181 211 219 200 212 231 236 238 226 188 192 217 213 195 193 201 213 217 195 184 198 220 230 228 228 236 243 247 245 222 192 177 171 172 172 169 167 171 172 174 183 196 209 232 260 281 299 308 307 304 303 304 305 305 305 307 311 314 316 320 322 324 325 324 322 322 320 319 319 316 314 313 309 305 305 303 300 297
259 148 176 216 217 226 243 225 198 228 271 238 219 228 236 237 227 201 203 224 228 222 218 210 206 205 193 189 200 216 229 227 218 227 243 247 233 199 179 173 169 166 168 169 170 174 179 185 195 211 231 255 277 290 300 306 303 298 298 300 301 302 304 308 314 316 318 321 323 324 325 324 322 321 320 319 319 318 316 314 310 306 304 302 298 294
135 173 183 196 222 240 255 249 218 294 306 270 236 227 235 234 220 209 217 227 235 246 253 240 218 209 208 211 203 199 221 236 227 221 233 234 203 178 175 171 167 165 166 169 174 181 189 198 210 227 252 270 281 290 298 299 295 293 295 296 298 302 306 311 315 318 320 323 323 324 324 323 321 320 320 319 319 317 316 314 311 305 302 302 299 292
156 226 201 154 223 248 249 234 215 217 261 255 237 227 231 227 210 218 232 232 230 235 236 240 245 236 226 228 216 190 211 240 235 211 215 216 189 176 170 164 162 164 166 169 174 182 191 205 221 236 255 269 277 287 293 289 285 287 289 290 297 303 308 313 318 319 321 323 323 323 323 321 320 320 319 319 318 317 317 317 314 307 299 298 299 298
210 224 214 194 228 248 253 233 201 190 241 258 252 229 216 204 195 217 235 238 238 237 226 224 241 245 235 233 222 204 212 237 227 196 183 180 176 171 167 165 165 164 167 172 176 181 192 207 223 240 256 270 280 287 287 282 282 283 280 284 294 301 307 315 319 318 319 321 322 322 322 319 318 319 319 318 318 317 317 318 318 316 310 300 300 304